Tracking 18987 objects as of 25-Feb-2018
HD Live streaming from Space Station
objects crossing your sky now

NOAA 16 DEB

Track NOAA 16 DEB now!
10-day predictions


NORAD ID: 41415
Int'l Code: 2000-055KU
Perigee: 847.3 km
Apogee: 856.5 km
Inclination: 98.9 °
Period: 101.8 minutes
Semi major axis: 7222 km
RCS: Unknown
Launch date: September 21, 2000
Source: United States (US)
Launch site: AIR FORCE WESTERN TEST RANGE (AFWTR)

Note: This is SATELLITE DEBRIS
aabbcc
Your satellite tracking list
Your tracking list is empty




NASA's NSSDC Master Catalog

Two Line Element Set (TLE):
1 41415U 00055KU  18055.42372653 +.00000564 +00000-0 +31855-3 0  9996
2 41415 098.8618 131.9480 0006393 263.6234 096.4210 14.14277647103201
Source of the keplerian elements: AFSPC